Home   Weather   Bournemouth   Past weeks

Flag for United Kingdom Past Weather in Bournemouth, England, United Kingdom — Yesterday and Last 2 Weeks

Now
52 °F

Clear.


Feels Like: 50 °F
Forecast: 61 / 71 °F
Wind: 6 mph from West

Location: Bournemouth Airport

Current Time: Aug 20, 2017 at 3:23:12 am

Latest Report: Aug 19, 2017 at 11:50 pm


Visibility: 10 mi

Pressure: 30.18 "Hg

Humidity: 82%

Dew Point: 46 °F

Location of BournemouthLocation

Past Weather in Bournemouth — Graph

°F

Bournemouth Temperature Yesterday

Maximum temperature yesterday: 68 °F (at 12:50 pm)
Minimum temperature yesterday: 52 °F (at 11:50 pm)
Average temperature yesterday: 62 °F

High & Low Weather Summary for the Past Weeks

 TemperatureHumidityPressure
High73 °F (Aug 10, 10:50 am)100% (Aug 6, 6:20 am)30.24 "Hg (Aug 6, 6:20 am)
Low45 °F (Aug 6, 5:50 am)30% (Aug 5, 1:20 pm)29.83 "Hg (Aug 17, 5:50 am)
Average63 °F75%30.05 "Hg
* Reported Aug 4 11:20 pm — Aug 19 11:50 pm, Bournemouth. Weather by CustomWeather, © 2017

Note: Actual official high and low records may vary slightly from our data, if they occured in-between our weather recording intervals... More about our weather records

Advertising

Bournemouth Weather History for the Previous 24 Hours

Scroll right to see more
 ConditionsComfort  
Time TempWeatherWind HumidityBarometerVisibility
11:50 pm
Sat, Aug 19
52 °FClear.6 mph82%30.18 "Hg10 mi
11:20 pm54 °FClear.7 mph82%30.21 "Hg10 mi
10:50 pm54 °FClear.5 mph82%30.18 "Hg10 mi
10:20 pm54 °FClear.5 mph82%30.18 "Hg10 mi
9:50 pm54 °FClear.8 mph82%30.18 "Hg10 mi
9:20 pm55 °FClear.7 mph77%30.18 "Hg10 mi
8:50 pm55 °FClear.8 mph72%30.18 "Hg10 mi
8:20 pm57 °FPassing clouds.10 mph67%30.15 "HgN/A
7:50 pm61 °FPassing clouds.10 mph59%30.15 "HgN/A
7:20 pm63 °FPassing clouds.15 mph52%30.15 "HgN/A
6:50 pm64 °FPassing clouds.17 mph46%30.12 "HgN/A
6:20 pm64 °FPassing clouds.17 mph52%30.12 "HgN/A
5:50 pm64 °FPassing clouds.16 mph52%30.12 "HgN/A
5:20 pm66 °FPassing clouds.18 mph49%30.12 "HgN/A
4:50 pm66 °FScattered clouds.15 mph49%30.12 "HgN/A
4:20 pm66 °FScattered clouds.15 mph49%30.12 "HgN/A
3:50 pm66 °FScattered clouds.17 mph49%30.12 "HgN/A
3:20 pm66 °FScattered clouds.10 mph56%30.09 "HgN/A
2:50 pm66 °FScattered clouds.16 mph56%30.09 "HgN/A
2:20 pm68 °FScattered clouds.18 mph49%30.09 "HgN/A
1:50 pm64 °FScattered clouds.15 mph52%30.09 "HgN/A
1:20 pm68 °FScattered clouds.20 mph53%30.09 "HgN/A
12:50 pm68 °FScattered clouds.18 mph53%30.09 "HgN/A
12:20 pm66 °FPartly sunny.20 mph52%30.09 "HgN/A
11:50 am66 °FScattered clouds.17 mph56%30.09 "HgN/A
11:20 am64 °FScattered clouds.15 mph60%30.09 "HgN/A
10:50 am64 °FScattered clouds.15 mph64%30.09 "HgN/A
10:20 am63 °FPassing clouds.10 mph73%30.09 "HgN/A
9:50 am63 °FPassing clouds.12 mph68%30.07 "HgN/A
9:20 am63 °FPassing clouds.13 mph68%30.07 "HgN/A
8:50 am61 °FPassing clouds.12 mph72%30.07 "HgN/A
7:50 am57 °FPassing clouds.7 mph94%30.07 "HgN/A
7:20 am55 °FPassing clouds.7 mph88%30.07 "HgN/A
6:50 am54 °FPassing clouds.8 mph94%30.04 "HgN/A
Weather by CustomWeather, © 2017

See weather overviewHow to use our weather pages